When you browse on this site, cookies collect data to enhance your experience and personalize the content and advertising you see.
Visit our Privacy Policy to learn more. By continuing to use the site, you agree to this use of cookies and data.

Tiempo cada hora San Luis

Hoy, 2 Julio, Jueves

Tiempo Temperatura Precipitaciones Viento Presión Humedad
00:00 +5°C° 0 mm 1 mps 700 mmHg 65%
01:00 +4°C° 0 mm 2 mps 700 mmHg 63%
02:00 +4°C° 0 mm 2 mps 700 mmHg 62%
03:00 +4°C° 0 mm 2 mps 700 mmHg 62%
04:00 +4°C° 0 mm 2 mps 700 mmHg 61%
05:00 +3°C° 0 mm 2 mps 700 mmHg 61%
06:00 +3°C° 0 mm 2 mps 701 mmHg 62%
07:00 +3°C° 0 mm 2 mps 701 mmHg 62%
08:00 +3°C° 0 mm 2 mps 702 mmHg 63%
09:00 +5°C° 0 mm 3 mps 702 mmHg 56%
10:00 +7°C° 0 mm 4 mps 702 mmHg 49%
11:00 +11°C° 0 mm 4 mps 703 mmHg 42%
12:00 +12°C° 0 mm 4 mps 702 mmHg 39%
13:00 +13°C° 0 mm 4 mps 702 mmHg 37%
14:00 +13°C° 0 mm 4 mps 701 mmHg 35%
15:00 +13°C° 0 mm 4 mps 701 mmHg 37%
16:00 +12°C° 0 mm 4 mps 700 mmHg 39%
17:00 +11°C° 0 mm 3 mps 700 mmHg 41%
18:00 +10°C° 0 mm 3 mps 700 mmHg 46%
19:00 +8°C° 0 mm 3 mps 700 mmHg 50%
20:00 +7°C° 0 mm 3 mps 699 mmHg 55%
21:00 +5°C° 0 mm 3 mps 699 mmHg 55%
22:00 +5°C° 0 mm 3 mps 699 mmHg 55%
23:00 +5°C° 0 mm 3 mps 699 mmHg 55%

Mañana, 3 Julio, Viernes

Tiempo Temperatura Precipitaciones Viento Presión Humedad
00:00 +5°C° 0 mm 4 mps 699 mmHg 56%
01:00 +5°C° 0 mm 4 mps 698 mmHg 57%
02:00 +5°C° 0 mm 4 mps 698 mmHg 59%
03:00 +5°C° 0 mm 5 mps 698 mmHg 60%
04:00 +5°C° 0 mm 5 mps 697 mmHg 61%
05:00 +4°C° 0 mm 6 mps 697 mmHg 62%
06:00 +4°C° 0 mm 6 mps 696 mmHg 62%
07:00 +4°C° 0 mm 6 mps 696 mmHg 62%
08:00 +4°C° 0 mm 6 mps 696 mmHg 62%
09:00 +6°C° 0 mm 7 mps 696 mmHg 55%
10:00 +10°C° 0 mm 7 mps 696 mmHg 48%
11:00 +12°C° 0 mm 8 mps 695 mmHg 41%
12:00 +14°C° 0 mm 7 mps 695 mmHg 39%
13:00 +15°C° 0 mm 7 mps 694 mmHg 37%
14:00 +16°C° 0 mm 7 mps 694 mmHg 34%
15:00 +15°C° 0 mm 6 mps 694 mmHg 37%
16:00 +14°C° 0 mm 5 mps 693 mmHg 40%
17:00 +13°C° 0 mm 4 mps 693 mmHg 43%
18:00 +11°C° 0 mm 4 mps 693 mmHg 50%
19:00 +9°C° 0 mm 3 mps 693 mmHg 57%
20:00 +7°C° 0 mm 2 mps 693 mmHg 64%
21:00 +7°C° 0 mm 2 mps 694 mmHg 65%
22:00 +7°C° 0 mm 2 mps 694 mmHg 66%
23:00 +6°C° 0 mm 2 mps 694 mmHg 67%

Pasado mañana, 4 Julio, Sábado

Tiempo Temperatura Precipitaciones Viento Presión Humedad
00:00 +5°C° 0 mm 3 mps 694 mmHg 67%
01:00 +5°C° 0 mm 3 mps 694 mmHg 68%
02:00 +5°C° 0 mm 4 mps 694 mmHg 68%
03:00 +5°C° 0 mm 5 mps 694 mmHg 70%
04:00 +3°C° 0 mm 6 mps 694 mmHg 72%
05:00 +3°C° 0 mm 7 mps 694 mmHg 74%
06:00 +3°C° 0 mm 6 mps 694 mmHg 73%
07:00 +4°C° 0 mm 6 mps 694 mmHg 71%
08:00 +4°C° 0 mm 6 mps 695 mmHg 70%
09:00 +7°C° 0 mm 6 mps 695 mmHg 61%
10:00 +9°C° 0 mm 7 mps 695 mmHg 53%
11:00 +11°C° 0 mm 7 mps 695 mmHg 44%
12:00 +13°C° 0 mm 6 mps 694 mmHg 42%
13:00 +13°C° 0 mm 6 mps 694 mmHg 40%
14:00 +14°C° 0 mm 5 mps 693 mmHg 38%
15:00 +13°C° 0 mm 6 mps 693 mmHg 42%
16:00 +11°C° 0 mm 7 mps 693 mmHg 47%
17:00 +9°C° 0 mm 8 mps 693 mmHg 51%
18:00 +7°C° 0 mm 8 mps 694 mmHg 60%
19:00 +6°C° 0 mm 8 mps 695 mmHg 69%
20:00 +5°C° 0 mm 8 mps 696 mmHg 77%
21:00 +5°C° 0 mm 8 mps 696 mmHg 80%
22:00 +4°C° 0 mm 7 mps 697 mmHg 82%
23:00 +4°C° 0 mm 6 mps 697 mmHg 84%

5 Julio, Domingo

Tiempo Temperatura Precipitaciones Viento Presión Humedad
00:00 +4°C° 0 mm 6 mps 698 mmHg 84%
01:00 +5°C° 0 mm 5 mps 698 mmHg 84%
02:00 +5°C° 0 mm 4 mps 698 mmHg 85%
03:00 +5°C° 0 mm 5 mps 699 mmHg 82%
04:00 +5°C° 0 mm 5 mps 699 mmHg 79%
05:00 +5°C° 0 mm 5 mps 699 mmHg 77%
06:00 +3°C° 0 mm 5 mps 700 mmHg 75%
07:00 +3°C° 0 mm 4 mps 700 mmHg 73%
08:00 +2°C° 0 mm 3 mps 701 mmHg 72%
09:00 +4°C° 0 mm 3 mps 702 mmHg 62%
10:00 +6°C° 0 mm 4 mps 703 mmHg 52%
11:00 +8°C° 0 mm 4 mps 703 mmHg 43%
12:00 +8°C° 0 mm 4 mps 703 mmHg 39%
13:00 +10°C° 0 mm 4 mps 703 mmHg 36%
14:00 +11°C° 0 mm 4 mps 702 mmHg 33%
15:00 +10°C° 0 mm 4 mps 702 mmHg 35%
16:00 +10°C° 0 mm 4 mps 702 mmHg 37%
17:00 +8°C° 0 mm 4 mps 702 mmHg 38%
18:00 +7°C° 0 mm 4 mps 702 mmHg 43%
19:00 +6°C° 0 mm 4 mps 702 mmHg 47%
20:00 +4°C° 0 mm 4 mps 702 mmHg 52%
21:00 +4°C° 0 mm 4 mps 702 mmHg 52%
22:00 +4°C° 0 mm 4 mps 702 mmHg 52%
23:00 +3°C° 0 mm 4 mps 702 mmHg 52%

6 Julio, Lunes

Tiempo Temperatura Precipitaciones Viento Presión Humedad
00:00 +3°C° 0 mm 4 mps 702 mmHg 49%
01:00 +3°C° 0 mm 4 mps 702 mmHg 46%
02:00 +3°C° 0 mm 4 mps 702 mmHg 44%
03:00 +3°C° 0 mm 4 mps 701 mmHg 43%
04:00 +3°C° 0 mm 3 mps 701 mmHg 43%
05:00 +3°C° 0 mm 3 mps 701 mmHg 43%
06:00 +3°C° 0 mm 3 mps 701 mmHg 44%
07:00 +2°C° 0 mm 3 mps 701 mmHg 46%
08:00 +3°C° 0 mm 2 mps 701 mmHg 48%
09:00 +5°C° 0 mm 3 mps 701 mmHg 45%
10:00 +8°C° 0 mm 3 mps 701 mmHg 43%
11:00 +10°C° 0 mm 3 mps 702 mmHg 40%
12:00 +10°C° 0 mm 4 mps 701 mmHg 43%
13:00 +10°C° 0 mm 4 mps 700 mmHg 47%
14:00 +10°C° 0 mm 4 mps 699 mmHg 50%
15:00 +9°C° 0 mm 3 mps 699 mmHg 53%
16:00 +9°C° 0 mm 3 mps 699 mmHg 57%
17:00 +8°C° 0 mm 2 mps 699 mmHg 60%
18:00 +8°C° 0 mm 2 mps 699 mmHg 63%
19:00 +7°C° 0 mm 3 mps 699 mmHg 67%
20:00 +5°C° 0 mm 3 mps 699 mmHg 71%
21:00 +5°C° 0 mm 3 mps 700 mmHg 71%
22:00 +4°C° 0 mm 3 mps 700 mmHg 71%
23:00 +4°C° 0 mm 3 mps 700 mmHg 71%

7 Julio, Martes

Tiempo Temperatura Precipitaciones Viento Presión Humedad
00:00 +5°C° 0 mm 2 mps 700 mmHg 71%
01:00 +5°C° 0 mm 2 mps 700 mmHg 72%
02:00 +6°C° 0 mm 1 mps 700 mmHg 72%
03:00 +6°C° 0 mm 1 mps 700 mmHg 70%
04:00 +5°C° 0 mm 2 mps 700 mmHg 68%
05:00 +5°C° 0 mm 2 mps 700 mmHg 66%
06:00 +4°C° 0 mm 2 mps 701 mmHg 67%
07:00 +3°C° 0 mm 3 mps 701 mmHg 68%
08:00 +3°C° 0 mm 3 mps 702 mmHg 69%
09:00 +5°C° 0 mm 3 mps 702 mmHg 62%
10:00 +7°C° 0 mm 2 mps 702 mmHg 55%
11:00 +8°C° 0 mm 2 mps 703 mmHg 49%
12:00 +9°C° 0 mm 2 mps 703 mmHg 46%
13:00 +9°C° 0 mm 2 mps 702 mmHg 43%
14:00 +11°C° 0 mm 1 mps 702 mmHg 41%
15:00 +9°C° 0 mm 2 mps 702 mmHg 45%
16:00 +9°C° 0 mm 3 mps 702 mmHg 49%
17:00 +8°C° 0 mm 3 mps 702 mmHg 53%
18:00 +7°C° 0 mm 3 mps 702 mmHg 59%
19:00 +5°C° 0 mm 3 mps 703 mmHg 66%
20:00 +4°C° 0 mm 4 mps 703 mmHg 73%
21:00 +3°C° 0 mm 3 mps 703 mmHg 75%
22:00 +3°C° 0 mm 3 mps 704 mmHg 78%
23:00 +3°C° 0 mm 2 mps 704 mmHg 80%
Mostrar más